| time (UTC) | temp F | wind direction | speed MPH | gust MPH | rain 1hr in | rain 24hr in | rain mn in | humidity % | barometer mb |
| 20260831002203 | 77 | 172 | 0.0 | 0.0 | 0.08 | 0.08 | 0.08 | 84 | 1009.8 |
| 20260831001702 | 77 | 172 | 0.0 | 0.0 | 0.06 | 0.06 | 0.06 | 82 | 1009.7 |
| 20260831001508 | 77 | 172 | 0.0 | 0.0 | 0.02 | 0.02 | 0.01 | 81 | 1009.6 |
| 20260831000702 | 78 | 172 | 0.0 | 0.0 | 0.00 | 0.00 | 0.00 | 79 | 1009.6 |
| 20260831000203 | 78 | 172 | 0.0 | 0.0 | 0.00 | 0.00 | 0.00 | 79 | 1009.4 |
| 20260830235706 | 78 | 172 | 0.0 | 0.0 | 0.00 | 0.00 | 0.00 | 78 | 1009.5 |
| 20260830235515 | 78 | 172 | 1.0 | 3.0 | 0.00 | 0.00 | 0.00 | 77 | 1009.6 |
| 20260830234703 | 78 | 172 | 2.0 | 3.0 | 0.00 | 0.00 | 0.00 | 77 | 1009.6 |
| 20260830234202 | 78 | 173 | 3.0 | 5.0 | 0.00 | 0.00 | 0.00 | 76 | 1009.7 |
| 20260830233703 | 78 | 172 | 3.0 | 5.0 | 0.00 | 0.00 | 0.00 | 76 | 1009.6 |
| 20260830233200 | 79 | 190 | 3.0 | 5.0 | 0.00 | 0.00 | 0.00 | 76 | 1009.5 |
| 20260830233013 | 79 | 167 | 4.0 | 7.0 | 0.00 | 0.00 | 0.00 | 75 | 1009.3 |
| 20260830232201 | 79 | 174 | 4.0 | 7.0 | 0.00 | 0.00 | 0.00 | 76 | 1009.5 |
| 20260830231701 | 79 | 188 | 3.0 | 6.0 | 0.00 | 0.00 | 0.00 | 76 | 1009.3 |
| 20260830231201 | 79 | 178 | 4.0 | 6.0 | 0.00 | 0.00 | 0.00 | 77 | 1009.5 |
| 20260830230701 | 79 | 172 | 4.0 | 6.0 | 0.00 | 0.00 | 0.00 | 76 | 1009.5 |
| 20260830230202 | 79 | 166 | 4.0 | 6.0 | 0.00 | 0.00 | 0.00 | 77 | 1009.5 |
| 20260830225701 | 79 | 168 | 3.0 | 6.0 | 0.00 | 0.00 | 0.00 | 77 | 1009.6 |
| 20260830225201 | 79 | 175 | 4.0 | 8.0 | 0.00 | 0.00 | 0.00 | 76 | 1009.5 |
| 20260830224703 | 79 | 170 | 5.0 | 8.0 | 0.00 | 0.00 | 0.00 | 76 | 1009.5 |
| 20260830224204 | 80 | 168 | 3.0 | 7.0 | 0.00 | 0.00 | 0.00 | 76 | 1009.4 |
| 20260830223704 | 80 | 169 | 2.0 | 5.0 | 0.00 | 0.00 | 0.00 | 77 | 1009.5 |
| 20260830223201 | 80 | 163 | 3.0 | 6.0 | 0.00 | 0.00 | 0.00 | 77 | 1009.5 |
| 20260830222701 | 80 | 163 | 3.0 | 6.0 | 0.00 | 0.00 | 0.00 | 76 | 1009.5 |
| 20260830222202 | 80 | 173 | 2.0 | 4.0 | 0.00 | 0.00 | 0.00 | 76 | 1009.4 |
| 20260830221700 | 80 | 177 | 2.0 | 3.0 | 0.00 | 0.00 | 0.00 | 77 | 1009.3 |
| 20260830221517 | 80 | 177 | 2.0 | 4.0 | 0.00 | 0.00 | 0.00 | 77 | 1009.3 |
| 20260830220700 | 80 | 177 | 2.0 | 4.0 | 0.00 | 0.00 | 0.00 | 77 | 1009.3 |
| 20260830220201 | 80 | 177 | 1.0 | 4.0 | 0.00 | 0.00 | 0.00 | 77 | 1009.2 |
| 20260830215702 | 80 | 165 | 2.0 | 4.0 | 0.00 | 0.00 | 0.00 | 76 | 1009.1 |
| 20260830215201 | 80 | 165 | 2.0 | 5.0 | 0.00 | 0.00 | 0.00 | 75 | 1009.1 |
| 20260830214702 | 80 | 165 | 3.0 | 5.0 | 0.00 | 0.00 | 0.00 | 75 | 1009.0 |
| 20260830214201 | 80 | 174 | 3.0 | 5.0 | 0.00 | 0.00 | 0.00 | 76 | 1009.0 |
| 20260830213823 | 80 | 174 | 2.0 | 5.0 | 0.00 | 0.00 | 0.00 | 76 | 1008.9 |
| 20260830213754 | 80 | 174 | 3.0 | 5.0 | 0.00 | 0.00 | 0.00 | 74 | 1009.0 |
| 20260830212700 | 80 | 179 | 2.0 | 3.0 | 0.00 | 0.00 | 0.00 | 76 | 1008.9 |
| 20260830212203 | 81 | 179 | 2.0 | 3.0 | 0.00 | 0.00 | 0.00 | 75 | 1009.0 |
| 20260830211704 | 81 | 181 | 2.0 | 4.0 | 0.00 | 0.00 | 0.00 | 74 | 1009.1 |
| 20260830211201 | 81 | 195 | 2.0 | 4.0 | 0.00 | 0.00 | 0.00 | 75 | 1009.1 |
| 20260830210701 | 81 | 200 | 2.0 | 3.0 | 0.00 | 0.00 | 0.00 | 74 | 1009.1 |
| 20260830210201 | 81 | 200 | 2.0 | 4.0 | 0.00 | 0.00 | 0.00 | 73 | 1009.2 |
| 20260830205701 | 81 | 200 | 2.0 | 4.0 | 0.00 | 0.00 | 0.00 | 72 | 1009.2 |
| 20260830205201 | 81 | 189 | 2.0 | 4.0 | 0.00 | 0.00 | 0.00 | 74 | 1009.3 |
| 20260830204701 | 81 | 189 | 2.0 | 4.0 | 0.00 | 0.00 | 0.00 | 75 | 1009.4 |
| 20260830204508 | 81 | 216 | 2.0 | 5.0 | 0.00 | 0.00 | 0.00 | 74 | 1009.5 |
| 20260830204014 | 81 | 216 | 3.0 | 7.0 | 0.00 | 0.00 | 0.00 | 74 | 1009.4 |
| 20260830203509 | 81 | 175 | 3.0 | 7.0 | 0.00 | 0.00 | 0.00 | 73 | 1009.5 |
| 20260830202701 | 80 | 178 | 3.0 | 5.0 | 0.00 | 0.00 | 0.00 | 76 | 1009.6 |
| 20260830202201 | 80 | 184 | 3.0 | 5.0 | 0.00 | 0.00 | 0.00 | 74 | 1009.6 |
| 20260830201701 | 80 | 234 | 3.0 | 6.0 | 0.00 | 0.00 | 0.00 | 75 | 1009.5 |
| 20260830201201 | 80 | 192 | 4.0 | 6.0 | 0.00 | 0.00 | 0.00 | 74 | 1009.5 |
| 20260830200701 | 80 | 184 | 4.0 | 7.0 | 0.00 | 0.00 | 0.00 | 74 | 1009.6 |
| 20260830200514 | 81 | 178 | 3.0 | 7.0 | 0.00 | 0.00 | 0.00 | 73 | 1009.6 |
| 20260830195702 | 81 | 171 | 2.0 | 5.0 | 0.00 | 0.00 | 0.00 | 74 | 1009.5 |
| 20260830195515 | 80 | 202 | 2.0 | 5.0 | 0.00 | 0.00 | 0.00 | 74 | 1009.6 |
| 20260830194702 | 80 | 244 | 3.0 | 7.0 | 0.00 | 0.00 | 0.00 | 75 | 1009.6 |
| 20260830194202 | 80 | 196 | 3.0 | 7.0 | 0.00 | 0.00 | 0.00 | 73 | 1009.6 |
| 20260830193702 | 80 | 185 | 3.0 | 6.0 | 0.00 | 0.00 | 0.00 | 76 | 1009.6 |
| 20260830193204 | 80 | 170 | 3.0 | 6.0 | 0.00 | 0.00 | 0.00 | 74 | 1009.5 |
| 20260830192711 | 80 | 177 | 3.0 | 6.0 | 0.00 | 0.00 | 0.00 | 74 | 1009.4 |
| 20260830192202 | 80 | 194 | 3.0 | 7.0 | 0.00 | 0.00 | 0.00 | 75 | 1009.4 |
| 20260830191701 | 80 | 190 | 3.0 | 7.0 | 0.00 | 0.00 | 0.00 | 75 | 1009.4 |
| 20260830191202 | 80 | 167 | 3.0 | 6.0 | 0.00 | 0.00 | 0.00 | 76 | 1009.3 |
| 20260830190701 | 79 | 182 | 3.0 | 6.0 | 0.00 | 0.00 | 0.00 | 75 | 1009.4 |
| 20260830190201 | 79 | 159 | 3.0 | 6.0 | 0.00 | 0.00 | 0.00 | 77 | 1009.5 |
| 20260830190011 | 79 | 200 | 4.0 | 6.0 | 0.00 | 0.00 | 0.00 | 76 | 1009.5 |
| 20260830185201 | 79 | 172 | 4.0 | 6.0 | 0.00 | 0.00 | 0.00 | 76 | 1009.5 |
| 20260830184702 | 79 | 159 | 4.0 | 6.0 | 0.00 | 0.00 | 0.00 | 77 | 1009.5 |
| 20260830184201 | 80 | 159 | 4.0 | 6.0 | 0.00 | 0.00 | 0.00 | 76 | 1009.5 |
| 20260830183702 | 80 | 154 | 3.0 | 5.0 | 0.00 | 0.00 | 0.00 | 77 | 1009.5 |
| 20260830183202 | 79 | 193 | 3.0 | 5.0 | 0.00 | 0.00 | 0.00 | 78 | 1009.6 |
| 20260830182701 | 79 | 193 | 3.0 | 5.0 | 0.00 | 0.00 | 0.00 | 77 | 1009.7 |
| 20260830182201 | 79 | 172 | 2.0 | 5.0 | 0.00 | 0.00 | 0.00 | 79 | 1009.6 |
| 20260830182008 | 78 | 194 | 1.0 | 3.0 | 0.00 | 0.00 | 0.00 | 79 | 1009.7 |
| 20260830181202 | 78 | 201 | 0.0 | 2.0 | 0.00 | 0.00 | 0.00 | 79 | 1009.6 |
| 20260830181007 | 78 | 201 | 1.0 | 3.0 | 0.00 | 0.00 | 0.00 | 79 | 1009.6 |
| 20260830180202 | 78 | 202 | 1.0 | 3.0 | 0.00 | 0.00 | 0.00 | 77 | 1009.7 |
| 20260830180020 | 78 | 202 | 2.0 | 3.0 | 0.00 | 0.00 | 0.00 | 78 | 1009.7 |
| 20260830175201 | 78 | 202 | 2.0 | 4.0 | 0.00 | 0.01 | 0.00 | 77 | 1010.1 |
| 20260830174701 | 78 | 205 | 2.0 | 5.0 | 0.00 | 0.17 | 0.00 | 76 | 1010.4 |
| 20260830174202 | 78 | 189 | 3.0 | 7.0 | 0.00 | 0.28 | 0.00 | 76 | 1010.5 |
| 20260830173700 | 78 | 192 | 4.0 | 7.0 | 0.00 | 0.32 | 0.00 | 75 | 1010.5 |
| 20260830173201 | 78 | 199 | 4.0 | 6.0 | 0.00 | 0.37 | 0.00 | 76 | 1010.7 |
| 20260830172700 | 79 | 176 | 4.0 | 6.0 | 0.00 | 0.46 | 0.00 | 75 | 1010.8 |
| 20260830172202 | 79 | 179 | 3.0 | 6.0 | 0.00 | 0.47 | 0.00 | 76 | 1010.9 |
| 20260830171702 | 79 | 191 | 3.0 | 5.0 | 0.00 | 0.48 | 0.00 | 76 | 1010.8 |
| 20260830171512 | 79 | 190 | 3.0 | 6.0 | 0.00 | 0.49 | 0.00 | 75 | 1010.8 |
| 20260830170702 | 79 | 192 | 3.0 | 6.0 | 0.00 | 0.49 | 0.00 | 75 | 1010.9 |
| 20260830170202 | 79 | 209 | 3.0 | 6.0 | 0.00 | 0.49 | 0.00 | 75 | 1010.4 |
| 20260830165702 | 79 | 190 | 3.0 | 6.0 | 0.00 | 0.49 | 0.00 | 75 | 1010.3 |
| 20260830165202 | 79 | 198 | 2.0 | 5.0 | 0.00 | 0.49 | 0.00 | 75 | 1010.3 |
| 20260830164702 | 79 | 223 | 1.0 | 3.0 | 0.00 | 0.49 | 0.00 | 75 | 1009.8 |
| 20260830164202 | 79 | 223 | 1.0 | 4.0 | 0.00 | 0.49 | 0.00 | 75 | 1009.5 |
| 20260830163703 | 79 | 223 | 2.0 | 4.0 | 0.00 | 0.49 | 0.00 | 75 | 1009.4 |
| 20260830163202 | 79 | 181 | 2.0 | 3.0 | 0.00 | 0.49 | 0.00 | 76 | 1009.4 |
| 20260830162701 | 79 | 181 | 2.0 | 3.0 | 0.00 | 0.49 | 0.00 | 75 | 1009.3 |
| 20260830162201 | 79 | 173 | 1.0 | 3.0 | 0.00 | 0.49 | 0.00 | 74 | 1009.3 |
| 20260830161701 | 79 | 173 | 0.0 | 2.0 | 0.00 | 0.49 | 0.00 | 76 | 1009.3 |
| 20260830161200 | 78 | 173 | 0.0 | 0.0 | 0.00 | 0.49 | 0.00 | 77 | 1009.3 |
| 20260830160701 | 78 | 173 | 0.0 | 1.0 | 0.00 | 0.49 | 0.00 | 75 | 1009.3 |
| 20260830160200 | 78 | 173 | 1.0 | 3.0 | 0.00 | 0.49 | 0.00 | 76 | 1009.2 |
| 20260830155701 | 78 | 173 | 1.0 | 3.0 | 0.00 | 0.49 | 0.00 | 75 | 1009.2 |
| 20260830155201 | 78 | 173 | 1.0 | 3.0 | 0.00 | 0.49 | 0.00 | 75 | 1009.1 |
| 20260830154701 | 78 | 173 | 0.0 | 2.0 | 0.00 | 0.49 | 0.00 | 76 | 1009.0 |
| 20260830154205 | 78 | 173 | 1.0 | 2.0 | 0.00 | 0.49 | 0.00 | 76 | 1009.0 |
| 20260830153703 | 78 | 182 | 1.0 | 2.0 | 0.00 | 0.49 | 0.00 | 76 | 1009.2 |
| 20260830153201 | 77 | 182 | 1.0 | 2.0 | 0.00 | 0.49 | 0.00 | 76 | 1009.3 |
| 20260830152702 | 77 | 182 | 2.0 | 4.0 | 0.00 | 0.49 | 0.00 | 76 | 1009.3 |
| 20260830152201 | 77 | 182 | 2.0 | 4.0 | 0.00 | 0.49 | 0.00 | 76 | 1009.3 |
| 20260830152013 | 77 | 169 | 2.0 | 5.0 | 0.00 | 0.49 | 0.00 | 76 | 1009.3 |
| 20260830151506 | 77 | 168 | 2.0 | 5.0 | 0.00 | 0.49 | 0.00 | 77 | 1009.3 |
| 20260830150701 | 77 | 223 | 2.0 | 3.0 | 0.00 | 0.49 | 0.00 | 76 | 1009.3 |
| 20260830150201 | 76 | 192 | 1.0 | 3.0 | 0.00 | 0.49 | 0.00 | 76 | 1009.3 |
| 20260830145701 | 76 | 180 | 1.0 | 3.0 | 0.00 | 0.49 | 0.00 | 78 | 1009.2 |
| 20260830145200 | 76 | 180 | 1.0 | 3.0 | 0.00 | 0.49 | 0.00 | 77 | 1009.2 |
| 20260830144701 | 76 | 180 | 2.0 | 3.0 | 0.00 | 0.49 | 0.00 | 77 | 1009.3 |
| 20260830144200 | 76 | 180 | 1.0 | 3.0 | 0.00 | 0.49 | 0.00 | 78 | 1009.2 |
| 20260830143701 | 76 | 180 | 0.0 | 3.0 | 0.00 | 0.49 | 0.00 | 79 | 1009.1 |
| 20260830143201 | 75 | 180 | 0.0 | 2.0 | 0.00 | 0.49 | 0.00 | 78 | 1008.9 |
| 20260830142701 | 75 | 180 | 1.0 | 2.0 | 0.00 | 0.49 | 0.00 | 79 | 1009.0 |
| 20260830142201 | 75 | 180 | 1.0 | 3.0 | 0.00 | 0.49 | 0.00 | 79 | 1009.1 |
| 20260830141820 | 75 | 180 | 0.0 | 4.0 | 0.00 | 0.49 | 0.00 | 80 | 1009.0 |
| 20260830141751 | 75 | 180 | 1.0 | 4.0 | 0.00 | 0.49 | 0.00 | 79 | 1009.1 |
| 20260830141006 | 75 | 162 | 0.0 | 0.0 | 0.00 | 0.49 | 0.00 | 80 | 1009.2 |
| 20260830140506 | 74 | 162 | 0.0 | 0.0 | 0.00 | 0.49 | 0.00 | 81 | 1009.0 |
| 20260830135702 | 74 | 131 | 0.0 | 0.0 | 0.00 | 0.50 | 0.00 | 82 | 1009.0 |
| 20260830135201 | 74 | 131 | 0.0 | 0.0 | 0.00 | 0.50 | 0.00 | 82 | 1009.0 |
| 20260830134701 | 73 | 131 | 0.0 | 0.0 | 0.00 | 0.51 | 0.00 | 82 | 1009.0 |
| 20260830134201 | 73 | 131 | 0.0 | 0.0 | 0.00 | 0.51 | 0.00 | 82 | 1009.0 |
| 20260830133701 | 73 | 130 | 0.0 | 0.0 | 0.00 | 0.52 | 0.00 | 82 | 1009.3 |
| 20260830133201 | 73 | 131 | 0.0 | 0.0 | 0.00 | 0.52 | 0.00 | 82 | 1009.2 |
| 20260830132701 | 72 | 131 | 0.0 | 0.0 | 0.00 | 0.53 | 0.00 | 83 | 1009.2 |
| 20260830132504 | 72 | 131 | 0.0 | 0.0 | 0.00 | 0.53 | 0.00 | 83 | 1009.2 |
| 20260830131703 | 72 | 131 | 0.0 | 0.0 | 0.00 | 0.54 | 0.00 | 83 | 1009.2 |
| 20260830131202 | 72 | 131 | 0.0 | 0.0 | 0.00 | 0.55 | 0.00 | 84 | 1009.1 |
| 20260830130702 | 72 | 131 | 0.0 | 0.0 | 0.00 | 0.56 | 0.00 | 82 | 1009.2 |
| 20260830130203 | 72 | 131 | 0.0 | 2.0 | 0.00 | 0.57 | 0.00 | 83 | 1008.9 |
| 20260830130014 | 72 | 131 | 1.0 | 2.0 | 0.00 | 0.58 | 0.00 | 83 | 1009.0 |
| 20260830125202 | 72 | 131 | 1.0 | 2.0 | 0.00 | 0.58 | 0.00 | 83 | 1009.0 |
| 20260830124701 | 72 | 131 | 1.0 | 3.0 | 0.00 | 0.59 | 0.00 | 84 | 1009.0 |
| 20260830124513 | 71 | 131 | 1.0 | 3.0 | 0.00 | 0.59 | 0.00 | 84 | 1009.0 |
| 20260830123702 | 71 | 131 | 0.0 | 0.0 | 0.00 | 0.60 | 0.00 | 85 | 1008.9 |
| 20260830123202 | 71 | 131 | 0.0 | 0.0 | 0.00 | 0.61 | 0.00 | 85 | 1009.0 |
| 20260830122703 | 71 | 131 | 0.0 | 0.0 | 0.00 | 0.61 | 0.00 | 85 | 1009.0 |
| 20260830122202 | 70 | 131 | 0.0 | 0.0 | 0.00 | 0.62 | 0.00 | 85 | 1009.0 |
| 20260830121703 | 70 | 130 | 0.0 | 0.0 | 0.00 | 0.62 | 0.00 | 85 | 1009.2 |
| 20260830121203 | 70 | 131 | 0.0 | 0.0 | 0.00 | 0.63 | 0.00 | 86 | 1009.3 |
| 20260830120701 | 70 | 130 | 0.0 | 0.0 | 0.00 | 0.63 | 0.00 | 86 | 1009.3 |
| 20260830120202 | 70 | 131 | 0.0 | 0.0 | 0.00 | 0.64 | 0.00 | 86 | 1009.1 |
| 20260830115702 | 70 | 131 | 0.0 | 0.0 | 0.00 | 0.64 | 0.00 | 87 | 1008.9 |
| 20260830115202 | 69 | 131 | 0.0 | 0.0 | 0.00 | 0.64 | 0.00 | 87 | 1008.9 |
| 20260830114701 | 69 | 131 | 0.0 | 0.0 | 0.00 | 0.65 | 0.00 | 87 | 1009.0 |
| 20260830114202 | 69 | 131 | 0.0 | 0.0 | 0.00 | 0.65 | 0.00 | 87 | 1009.0 |
| 20260830113703 | 69 | 145 | 0.0 | 0.0 | 0.00 | 0.65 | 0.00 | 87 | 1009.3 |
| 20260830113201 | 70 | 145 | 0.0 | 0.0 | 0.00 | 0.65 | 0.00 | 87 | 1009.3 |
| 20260830112703 | 70 | 145 | 0.0 | 0.0 | 0.00 | 0.65 | 0.00 | 86 | 1009.2 |
| 20260830112201 | 70 | 145 | 0.0 | 0.0 | 0.00 | 0.65 | 0.00 | 86 | 1009.1 |
| 20260830111955 | 70 | 145 | 0.0 | 0.0 | 0.00 | 0.65 | 0.00 | 86 | 1009.0 |
| 20260830111500 | 70 | 145 | 0.0 | 0.0 | 0.00 | 0.65 | 0.00 | 86 | 1008.9 |
| 20260830111023 | 70 | 145 | 0.0 | 0.0 | 0.00 | 0.65 | 0.00 | 85 | 1008.9 |
| 20260830110201 | 71 | 145 | 0.0 | 2.0 | 0.00 | 0.65 | 0.00 | 85 | 1008.9 |
| 20260830105702 | 71 | 145 | 0.0 | 2.0 | 0.00 | 0.65 | 0.00 | 85 | 1009.1 |
| 20260830105208 | 71 | 183 | 1.0 | 2.0 | 0.00 | 0.65 | 0.00 | 85 | 1009.0 |
| 20260830105013 | 71 | 183 | 1.0 | 3.0 | 0.00 | 0.65 | 0.00 | 85 | 1009.0 |
| 20260830104322 | 70 | 183 | 1.0 | 3.0 | 0.00 | 0.65 | 0.00 | 86 | 1009.0 |
| 20260830104252 | 71 | 183 | 1.0 | 3.0 | 0.00 | 0.65 | 0.00 | 85 | 1009.1 |
| 20260830103202 | 70 | 183 | 1.0 | 3.0 | 0.00 | 0.65 | 0.00 | 86 | 1009.2 |
| 20260830102701 | 70 | 183 | 0.0 | 2.0 | 0.00 | 0.65 | 0.00 | 87 | 1009.2 |
| 20260830102206 | 70 | 183 | 0.0 | 2.0 | 0.00 | 0.65 | 0.00 | 87 | 1009.3 |
| 20260830101701 | 70 | 183 | 0.0 | 2.0 | 0.00 | 0.65 | 0.00 | 86 | 1009.2 |
| 20260830101201 | 70 | 183 | 0.0 | 2.0 | 0.00 | 0.65 | 0.00 | 86 | 1009.1 |
| 20260830101010 | 71 | 183 | 0.0 | 2.0 | 0.00 | 0.65 | 0.00 | 86 | 1009.1 |
| 20260830100200 | 71 | 183 | 0.0 | 2.0 | 0.00 | 0.65 | 0.00 | 86 | 1009.1 |
| 20260830095701 | 71 | 183 | 1.0 | 2.0 | 0.00 | 0.65 | 0.00 | 86 | 1008.9 |
| 20260830095202 | 71 | 183 | 1.0 | 4.0 | 0.00 | 0.65 | 0.00 | 86 | 1009.0 |
| 20260830094702 | 71 | 183 | 2.0 | 4.0 | 0.00 | 0.65 | 0.00 | 86 | 1009.1 |
| 20260830094201 | 70 | 160 | 1.0 | 4.0 | 0.00 | 0.65 | 0.00 | 87 | 1009.2 |
| 20260830093703 | 70 | 138 | 0.0 | 2.0 | 0.00 | 0.65 | 0.00 | 87 | 1009.3 |
| 20260830093203 | 70 | 132 | 0.0 | 1.0 | 0.00 | 0.65 | 0.00 | 87 | 1009.3 |
| 20260830092701 | 71 | 132 | 0.0 | 1.0 | 0.00 | 0.65 | 0.00 | 86 | 1009.5 |
| 20260830092201 | 71 | 132 | 0.0 | 3.0 | 0.00 | 0.65 | 0.00 | 86 | 1009.5 |
| 20260830092012 | 71 | 132 | 1.0 | 3.0 | 0.00 | 0.65 | 0.00 | 86 | 1009.4 |
| 20260830091158 | 71 | 145 | 1.0 | 2.0 | 0.00 | 0.65 | 0.00 | 86 | 1009.5 |
| 20260830090659 | 71 | 145 | 1.0 | 2.0 | 0.00 | 0.65 | 0.00 | 85 | 1009.4 |
| 20260830090200 | 71 | 145 | 1.0 | 3.0 | 0.00 | 0.65 | 0.00 | 85 | 1009.5 |
| 20260830085657 | 71 | 225 | 1.0 | 3.0 | 0.00 | 0.65 | 0.00 | 85 | 1009.5 |
| 20260830085505 | 71 | 329 | 1.0 | 4.0 | 0.00 | 0.65 | 0.00 | 85 | 1009.5 |
| 20260830084655 | 71 | 188 | 2.0 | 4.0 | 0.00 | 0.65 | 0.00 | 85 | 1009.5 |
| 20260830084149 | 71 | 175 | 2.0 | 4.0 | 0.00 | 0.65 | 0.00 | 85 | 1009.6 |
| 20260830083646 | 72 | 175 | 1.0 | 3.0 | 0.00 | 0.65 | 0.00 | 85 | 1009.6 |
| 20260830083146 | 72 | 178 | 1.0 | 4.0 | 0.00 | 0.65 | 0.00 | 84 | 1009.7 |
| 20260830082646 | 72 | 178 | 2.0 | 5.0 | 0.00 | 0.65 | 0.00 | 84 | 1009.7 |
| 20260830082146 | 72 | 169 | 2.0 | 5.0 | 0.00 | 0.65 | 0.00 | 84 | 1009.7 |
| 20260830081647 | 72 | 169 | 2.0 | 4.0 | 0.00 | 0.65 | 0.00 | 84 | 1009.8 |
| 20260830081146 | 72 | 169 | 2.0 | 4.0 | 0.00 | 0.65 | 0.00 | 84 | 1009.6 |
| 20260830080953 | 72 | 144 | 2.0 | 4.0 | 0.00 | 0.65 | 0.00 | 84 | 1009.7 |
| 20260830080142 | 72 | 92 | 2.0 | 4.0 | 0.00 | 0.65 | 0.00 | 83 | 1009.7 |
| 20260830075643 | 73 | 85 | 1.0 | 4.0 | 0.00 | 0.65 | 0.00 | 83 | 1009.7 |
| 20260830075455 | 73 | 191 | 1.0 | 4.0 | 0.00 | 0.65 | 0.00 | 83 | 1009.7 |
| 20260830074640 | 73 | 192 | 1.0 | 3.0 | 0.00 | 0.65 | 0.00 | 82 | 1009.5 |
| 20260830074140 | 73 | 192 | 2.0 | 6.0 | 0.00 | 0.65 | 0.00 | 82 | 1009.6 |
| 20260830073640 | 73 | 192 | 3.0 | 6.0 | 0.00 | 0.65 | 0.00 | 82 | 1009.7 |
| 20260830073140 | 73 | 169 | 2.0 | 5.0 | 0.00 | 0.65 | 0.00 | 83 | 1009.7 |
| 20260830072639 | 73 | 186 | 2.0 | 4.0 | 0.00 | 0.65 | 0.00 | 83 | 1009.7 |
| 20260830072440 | 73 | 180 | 2.0 | 4.0 | 0.00 | 0.65 | 0.00 | 83 | 1010.0 |
| 20260830071949 | 73 | 181 | 2.0 | 3.0 | 0.00 | 0.65 | 0.00 | 83 | 1010.0 |
| 20260830071136 | 72 | 180 | 2.0 | 4.0 | 0.00 | 0.65 | 0.00 | 83 | 1010.1 |
| 20260830070943 | 72 | 180 | 2.0 | 4.0 | 0.00 | 0.65 | 0.00 | 84 | 1010.1 |
| 20260830070603 | 72 | 180 | 2.0 | 5.0 | 0.00 | 0.65 | 0.00 | 84 | 1010.3 |
| 20260830070550 | 72 | 180 | 2.0 | 5.0 | 0.00 | 0.65 | 0.00 | 84 | 1010.1 |
| 20260830065136 | 72 | 140 | 1.0 | 3.0 | 0.00 | 0.65 | 0.00 | 85 | 1010.1 |
| 20260830064634 | 72 | 95 | 0.0 | 0.0 | 0.00 | 0.65 | 0.00 | 85 | 1010.1 |
| 20260830064432 | 72 | 184 | 0.0 | 0.0 | 0.00 | 0.65 | 0.00 | 85 | 1010.3 |
| 20260830063932 | 72 | 184 | 0.0 | 0.0 | 0.00 | 0.65 | 0.00 | 85 | 1010.3 |
| 20260830063131 | 72 | 184 | 1.0 | 3.0 | 0.00 | 0.65 | 0.00 | 84 | 1010.3 |
| 20260830062632 | 72 | 184 | 2.0 | 4.0 | 0.00 | 0.65 | 0.00 | 84 | 1010.3 |
| 20260830062439 | 72 | 184 | 2.0 | 4.0 | 0.00 | 0.65 | 0.00 | 85 | 1010.3 |
| 20260830061631 | 72 | 172 | 1.0 | 3.0 | 0.00 | 0.65 | 0.00 | 85 | 1010.5 |
| 20260830061132 | 72 | 172 | 1.0 | 3.0 | 0.00 | 0.65 | 0.00 | 85 | 1010.5 |
| 20260830060630 | 71 | 172 | 1.0 | 3.0 | 0.00 | 0.65 | 0.00 | 85 | 1010.6 |
| 20260830060130 | 71 | 188 | 1.0 | 2.0 | 0.00 | 0.65 | 0.00 | 86 | 1010.7 |
| 20260830055631 | 71 | 188 | 0.0 | 2.0 | 0.00 | 0.65 | 0.00 | 86 | 1010.7 |
| 20260830055437 | 71 | 125 | 0.0 | 0.0 | 0.00 | 0.65 | 0.00 | 86 | 1010.6 |
| 20260830054629 | 71 | 125 | 0.0 | 0.0 | 0.00 | 0.65 | 0.00 | 86 | 1010.7 |
| 20260830054129 | 71 | 125 | 1.0 | 3.0 | 0.00 | 0.65 | 0.00 | 86 | 1010.7 |
| 20260830053629 | 71 | 125 | 1.0 | 3.0 | 0.00 | 0.65 | 0.00 | 86 | 1010.8 |
| 20260830053435 | 71 | 125 | 1.0 | 3.0 | 0.00 | 0.65 | 0.00 | 86 | 1010.8 |
| 20260830052631 | 71 | 156 | 1.0 | 2.0 | 0.00 | 0.65 | 0.00 | 87 | 1010.8 |
| 20260830052129 | 71 | 156 | 0.0 | 2.0 | 0.00 | 0.65 | 0.00 | 86 | 1010.9 |
| 20260830051629 | 71 | 156 | 0.0 | 0.0 | 0.00 | 0.65 | 0.00 | 86 | 1011.0 |
| 20260830051446 | 71 | 156 | 0.0 | 0.0 | 0.00 | 0.65 | 0.00 | 86 | 1010.9 |
| 20260830050633 | 71 | 156 | 0.0 | 2.0 | 0.00 | 0.65 | 0.00 | 86 | 1011.0 |
| 20260830050130 | 71 | 156 | 0.0 | 2.0 | 0.00 | 0.65 | 0.00 | 85 | 1011.0 |
| 20260830045630 | 71 | 156 | 0.0 | 2.0 | 0.00 | 0.65 | 0.65 | 85 | 1011.1 |
| 20260830045437 | 72 | 156 | 1.0 | 3.0 | 0.00 | 0.65 | 0.65 | 85 | 1011.1 |
| 20260830044629 | 72 | 156 | 2.0 | 3.0 | 0.00 | 0.65 | 0.65 | 85 | 1011.1 |
| 20260830044438 | 71 | 156 | 1.0 | 3.0 | 0.00 | 0.65 | 0.65 | 85 | 1011.1 |
| 20260830043628 | 71 | 140 | 0.0 | 0.0 | 0.00 | 0.65 | 0.65 | 85 | 1011.2 |
| 20260830043128 | 71 | 140 | 0.0 | 0.0 | 0.00 | 0.65 | 0.65 | 85 | 1011.3 |
| 20260830042932 | 71 | 140 | 0.0 | 0.0 | 0.00 | 0.65 | 0.65 | 85 | 1011.3 |
| 20260830042123 | 71 | 140 | 0.0 | 0.0 | 0.00 | 0.65 | 0.65 | 85 | 1011.2 |
| 20260830041928 | 71 | 140 | 0.0 | 2.0 | 0.00 | 0.65 | 0.65 | 85 | 1011.2 |
| 20260830041123 | 71 | 140 | 0.0 | 2.0 | 0.00 | 0.65 | 0.65 | 84 | 1011.2 |
| 20260830040621 | 71 | 140 | 0.0 | 2.0 | 0.00 | 0.65 | 0.65 | 84 | 1011.2 |
| 20260830040119 | 71 | 140 | 0.0 | 2.0 | 0.00 | 0.65 | 0.65 | 84 | 1011.3 |
| 20260830035619 | 71 | 140 | 1.0 | 2.0 | 0.00 | 0.65 | 0.65 | 84 | 1011.4 |
| 20260830035119 | 71 | 140 | 1.0 | 3.0 | 0.00 | 0.65 | 0.65 | 84 | 1011.3 |
| 20260830034622 | 71 | 140 | 1.0 | 3.0 | 0.00 | 0.65 | 0.65 | 83 | 1011.3 |
| 20260830034119 | 71 | 140 | 1.0 | 2.0 | 0.00 | 0.65 | 0.65 | 84 | 1011.3 |
| 20260830033619 | 71 | 140 | 0.0 | 2.0 | 0.00 | 0.65 | 0.65 | 84 | 1011.4 |
| 20260830033119 | 71 | 140 | 0.0 | 1.0 | 0.00 | 0.65 | 0.65 | 84 | 1011.3 |
| 20260830032617 | 71 | 140 | 0.0 | 3.0 | 0.00 | 0.65 | 0.65 | 83 | 1011.4 |
| 20260830032117 | 72 | 140 | 0.0 | 3.0 | 0.00 | 0.65 | 0.65 | 83 | 1011.3 |
| 20260830031610 | 72 | 183 | 0.0 | 0.0 | 0.00 | 0.65 | 0.65 | 83 | 1011.3 |
| 20260830031108 | 72 | 183 | 0.0 | 0.0 | 0.00 | 0.65 | 0.65 | 83 | 1011.2 |
| 20260830030607 | 72 | 183 | 0.0 | 0.0 | 0.00 | 0.65 | 0.65 | 83 | 1011.2 |
| 20260830030107 | 72 | 183 | 1.0 | 2.0 | 0.00 | 0.65 | 0.65 | 82 | 1011.2 |
| 20260830025612 | 72 | 183 | 1.0 | 2.0 | 0.00 | 0.65 | 0.65 | 81 | 1011.3 |
| 20260830025109 | 72 | 183 | 1.0 | 2.0 | 0.00 | 0.65 | 0.65 | 81 | 1011.2 |
| 20260830024607 | 73 | 183 | 1.0 | 2.0 | 0.00 | 0.65 | 0.65 | 81 | 1011.2 |
| 20260830024105 | 72 | 183 | 1.0 | 2.0 | 0.00 | 0.65 | 0.65 | 81 | 1011.3 |
| 20260830023902 | 72 | 183 | 1.0 | 2.0 | 0.00 | 0.65 | 0.65 | 81 | 1011.3 |
| 20260830023104 | 73 | 183 | 1.0 | 2.0 | 0.00 | 0.65 | 0.65 | 81 | 1011.2 |
| 20260830022719 | 73 | 183 | 1.0 | 3.0 | 0.00 | 0.65 | 0.65 | 81 | 1011.3 |
| 20260830022647 | 73 | 183 | 1.0 | 3.0 | 0.00 | 0.65 | 0.65 | 81 | 1011.2 |
| 20260830021601 | 73 | 183 | 1.0 | 3.0 | 0.00 | 0.65 | 0.65 | 81 | 1011.2 |
| 20260830021101 | 73 | 183 | 1.0 | 3.0 | 0.00 | 0.65 | 0.65 | 80 | 1011.1 |
| 20260830020601 | 73 | 183 | 0.0 | 3.0 | 0.00 | 0.65 | 0.65 | 80 | 1011.1 |
| 20260830020101 | 73 | 183 | 0.0 | 1.0 | 0.00 | 0.65 | 0.65 | 81 | 1011.1 |
| 20260830015600 | 73 | 183 | 0.0 | 2.0 | 0.00 | 0.65 | 0.65 | 80 | 1011.1 |
| 20260830015100 | 73 | 183 | 1.0 | 3.0 | 0.00 | 0.65 | 0.65 | 79 | 1011.0 |
| 20260830014601 | 73 | 183 | 2.0 | 3.0 | 0.00 | 0.65 | 0.65 | 78 | 1010.8 |
| 20260830014101 | 73 | 183 | 2.0 | 5.0 | 0.00 | 0.65 | 0.65 | 79 | 1010.7 |
| 20260830013601 | 73 | 184 | 3.0 | 5.0 | 0.00 | 0.65 | 0.65 | 79 | 1010.5 |
| 20260830013101 | 73 | 163 | 3.0 | 5.0 | 0.00 | 0.65 | 0.65 | 80 | 1010.5 |
| 20260830012601 | 73 | 182 | 2.0 | 3.0 | 0.00 | 0.65 | 0.65 | 80 | 1010.5 |
| 20260830012101 | 73 | 182 | 2.0 | 3.0 | 0.00 | 0.65 | 0.65 | 80 | 1010.6 |
| 20260830011601 | 74 | 182 | 1.0 | 3.0 | 0.00 | 0.65 | 0.65 | 81 | 1010.6 |
| 20260830011101 | 74 | 183 | 0.0 | 2.0 | 0.00 | 0.65 | 0.65 | 82 | 1010.5 |
| 20260830010600 | 74 | 183 | 0.0 | 1.0 | 0.00 | 0.65 | 0.65 | 81 | 1010.6 |
| 20260830010100 | 74 | 183 | 1.0 | 3.0 | 0.00 | 0.65 | 0.65 | 80 | 1010.6 |
| 20260830005602 | 74 | 183 | 1.0 | 3.0 | 0.00 | 0.65 | 0.65 | 79 | 1010.5 |
| 20260830005102 | 74 | 183 | 0.0 | 3.0 | 0.00 | 0.65 | 0.65 | 79 | 1010.6 |
| 20260830004600 | 74 | 152 | 0.0 | 0.0 | 0.00 | 0.65 | 0.65 | 79 | 1010.5 |
| 20260830004101 | 74 | 152 | 1.0 | 2.0 | 0.00 | 0.65 | 0.65 | 80 | 1010.3 |
| 20260830003602 | 74 | 152 | 1.0 | 3.0 | 0.00 | 0.65 | 0.65 | 80 | 1010.3 |
| 20260830003101 | 74 | 152 | 1.0 | 3.0 | 0.00 | 0.65 | 0.65 | 80 | 1010.1 |
| 20260830002600 | 74 | 152 | 1.0 | 2.0 | 0.00 | 0.65 | 0.65 | 80 | 1010.3 |